This demonstration page uses our WeatherBlox Daily Observations layout. Learn more.

Left ArrowRight Arrow

Hourly Observations for February 18, 2015

Temp ( °F °C ) Dew Point ( °F °C ) Humidity (%) Winds ( mph kmh ) Pressure ( in mb ) Visibility ( mi km ) Precip ( " mm )
12:53 am 00:53 Clear 47 8.3 43 6.1 86 86 Calm 30.14 1021 10 16 0.00 0.00
1:53 am 01:53 Clear 45 7.2 43 6.1 93 93 Calm 30.15 1021 10 16 0.00 0.00
2:53 am 02:53 Clear 45 7.2 42 5.6 90 90 Calm 30.15 1021 10 16 0.00 0.00
3:53 am 03:53 Clear 44 6.7 41 5 89 89 Calm 30.15 1021 10 16 0.00 0.00
4:53 am 04:53 Clear 43 6.1 40 4.4 89 89 Calm 30.16 1021 10 16 0.00 0.00
5:53 am 05:53 Clear 42 5.6 39 3.9 89 89 Calm 30.17 1022 10 16 0.00 0.00
6:53 am 06:53 Clear 42 5.6 39 3.9 89 89 Calm 30.18 1022 7 11 0.00 0.00
7:24 am 07:24 Sunny with Mist and Fog 43 6 39 4 87 87 Calm 30.18 1022 1 2 0.00 0.00
7:34 am 07:34 Sunny 43 6 39 4 87 87 Calm 30.21 1023 10 16 0.00 0.00
7:53 am 07:53 Sunny 45 7.2 42 5.6 90 90 WNW 3 6 30.20 1023 10 16 0.00 0.00
8:53 am 08:53 Sunny 50 10 45 7.2 83 83 Calm 30.20 1023 10 16 0.00 0.00
9:53 am 09:53 Sunny 55 12.8 46 7.8 72 72 Calm 30.20 1023 10 16 0.00 0.00
10:53 am 10:53 Sunny 60 15.6 48 8.9 65 65 Calm 30.20 1023 10 16 0.00 0.00
11:53 am 11:53 Sunny 63 17.2 46 7.8 54 54 Calm 30.17 1022 10 16 0.00 0.00
12:53 pm 12:53 Sunny 66 18.9 47 8.3 50 50 undefined N/A 30.14 1021 10 16 0.00 0.00
1:53 pm 13:53 Sunny 68 20 48 8.9 49 49 Calm 30.10 1019 10 16 0.00 0.00
2:53 pm 14:53 Sunny 70 21.1 49 9.4 47 47 ESE 3 6 30.08 1019 10 16 0.00 0.00
3:53 pm 15:53 Sunny 71 21.7 49 9.4 46 46 ESE 5 7 30.07 1018 10 16 0.00 0.00
4:53 pm 16:53 Sunny 69 20.6 53 11.7 57 57 SE 5 7 30.07 1018 10 16 0.00 0.00
5:53 pm 17:53 Clear 64 17.8 51 10.6 63 63 SE 3 6 30.08 1019 10 16 0.00 0.00
6:53 pm 18:53 Clear 62 16.7 52 11.1 70 70 Calm 30.09 1019 10 16 0.00 0.00
7:53 pm 19:53 Clear 59 15 51 10.6 75 75 Calm 30.10 1019 10 16 0.00 0.00
8:53 pm 20:53 Clear 53 11.7 49 9.4 86 86 ESE 5 7 30.11 1020 10 16 0.00 0.00
9:53 pm 21:53 Clear 53 11.7 49 9.4 86 86 Calm 30.14 1021 10 16 0.00 0.00
10:53 pm 22:53 Clear 51 10.6 48 8.9 89 89 Calm 30.14 1021 10 16 0.00 0.00
11:53 pm 23:53 Clear 49 9.4 46 7.8 90 90 Calm 30.15 1021 10 16 0.00 0.00

Powered by AerisWeather